Change the Weather History Date:

Tuesday, March 12, 2013

  Actual Average Record
Temperature  
Mean Temperature 73 °F -  
Max Temperature 91 °F 86 °F 95 °F (2014)
Min Temperature 55 °F 55 °F 48 °F (2011)
Cooling Degree Days 8    
Growing Degree Days 23 (Base 50)    
Moisture  
Dew Point 49 °F    
Average Humidity 47    
Maximum Humidity 88    
Minimum Humidity 14    
Precipitation  
Precipitation 0.00 in - - ()
Sea Level Pressure  
Sea Level Pressure 29.98 in    
Wind  
Wind Speed 4 mph ()    
Max Wind Speed 14 mph    
Max Gust Speed -    
Visibility 9.0 miles    
Events      
Averages and records for this station are not official NWS values.
T = Trace of Precipitation, MM = Missing Value Source: Averaged Metar Reports

Daily Weather History Graph

Daily Weather History Graph

Search for Another Location

Airport or City:

Trip Planner

Search our weather history database for the weather conditions in past years. The results will help you decide how hot, cold, wet, or windy it might be!

Date:

Astronomy

Mar. 12, 2013 Rise Set
Actual Time 6:36 AM CST 6:36 PM CST
Civil Twilight 6:15 AM CST 6:57 PM CST
Nautical Twilight 5:50 AM CST 7:23 PM CST
Astronomical Twilight 5:25 AM CST 7:48 PM CST
Moon 6:58 AM CST (3/12) 7:33 PM CST (3/12)
Length of Visible Light 12h 42m
Length of Day
11h 59m
New Moon, 1% of the Moon is Illuminated
Mar 12
New Moon
Mar 19
First Quarter
Mar 27
Full
Apr 2
Last Quarter
Apr 10
New

Hourly Weather History & Observations

Time (CST) Temp. Dew Point Humidity Pressure Visibility Wind Dir Wind Speed Gust Speed Precip Events Conditions
2:45 AM 62 °F 51 °F 58% 29.89 in 6 mi NW 2.2 mph - -   Partly Cloudy
5:45 AM 57 °F 49 °F 67% 29.95 in 6 mi South 2.2 mph - -   Partly Cloudy
6:18 AM 55.4 °F 50.0 °F 82% 29.87 in 7.0 mi Calm Calm - N/A   Clear
6:19 AM 55.4 °F 50.0 °F 82% 29.87 in 7.0 mi Calm Calm - N/A   Clear
6:49 AM 51.8 °F 48.2 °F 88% 30.20 in 7.0 mi Calm Calm - N/A   Clear
7:40 AM 57.2 °F 50.0 °F 77% 30.22 in 7.0 mi Calm Calm - N/A   Clear
8:45 AM 66 °F 51 °F 48% 30.03 in 11 mi SW 2.2 mph - -   Partly Cloudy
8:45 AM 62.6 °F 50.0 °F 63% 29.95 in 7.0 mi SE 2.3 mph - N/A   Partly Cloudy
9:44 AM 66.2 °F 51.8 °F 60% 30.25 in 7.0 mi ESE 3.5 mph - N/A   Scattered Clouds
10:48 AM 69.8 °F 51.8 °F 53% 30.24 in 10.0 mi ESE 9.2 mph - N/A   Mostly Cloudy
11:45 AM 80 °F 53 °F 28% 29.98 in 11 mi South 2.2 mph - -   Partly Cloudy
11:45 AM 73.4 °F 51.8 °F 47% 29.84 in 10.0 mi SE 9.2 mph - N/A   Mostly Cloudy
12:44 PM 78.8 °F 50.0 °F 36% 30.15 in 12.0 mi SE 10.4 mph - N/A   Mostly Cloudy
1:46 PM 82.4 °F 48.2 °F 30% 30.10 in 12.0 mi South 13.8 mph - N/A   Mostly Cloudy
2:42 PM 84.2 °F 44.6 °F 25% 29.66 in 12.0 mi SSE 12.7 mph - N/A   Mostly Cloudy
2:50 PM 91 °F 48 °F 14% 29.76 in 9 mi SW 4.5 mph - -   Partly Cloudy
3:43 PM 84.2 °F 41.0 °F 22% 30.03 in 12.0 mi South 10.4 mph - N/A   Overcast
4:45 PM 84.2 °F 42.8 °F 23% 30.02 in 12.0 mi SE 5.8 mph - N/A   Mostly Cloudy
5:45 PM 80.6 °F 46.4 °F 30% 29.73 in 12.0 mi ENE 12.7 mph - N/A   Mostly Cloudy
5:50 PM 79 °F 47 °F 22% 29.70 in 9 mi SSE 13.4 mph - -   Partly Cloudy
6:45 PM 75.2 °F 48.2 °F 38% 30.08 in 10.0 mi East 11.5 mph - N/A   Overcast
7:46 PM 73.4 °F 48.2 °F 41% 30.13 in 10.0 mi Calm Calm - N/A   Mostly Cloudy
8:45 PM 69.8 °F 48.2 °F 46% 29.83 in 8.0 mi SSW 5.8 mph - N/A   Mostly Cloudy
8:48 PM 73 °F 50 °F 33% 29.78 in 6 mi SW 2.2 mph - -   Partly Cloudy
9:47 PM 66.2 °F 50.0 °F 56% 30.22 in 8.0 mi Calm Calm - N/A   Mostly Cloudy
10:45 PM 64.4 °F 50.0 °F 59% 30.23 in 8.0 mi Calm Calm - N/A   Mostly Cloudy
11:55 PM 65 °F 49 °F 46% 29.88 in 6 mi WSW 2.2 mph - -   Clear